Location: Fuentemilanos
(40.8749°N, 4.2280°W)
Time: 03:10:34
(UTC+00:00)

Daily predictions for brighter satellites

Satellite Brightness Start Highest point End
(mag) Time Altitude Azimuth Time Altitude Azimuth Time Altitude Azimuth
SL-08 ROCKET BODY 4.2 00:00:41 10° N 00:06:36 85° E 00:06:46 83° SE
Cosmos 1461 4.3 00:03:01 10° NNW 00:06:31 35° NE 00:06:31 35° NE
Cosmos 1244 Rocket 4.4 00:00:41 10° N 00:07:01 74° E 00:07:36 69° SE
Nadezhda 2 Rocket 4.3 00:02:37 10° N 00:08:47 79° E 00:09:13 75° SE
ATLAS CENTAUR R/B 2.3 00:10:19 10° NW 00:13:59 51° NW 00:13:59 51° NW
Cosmos 2322 Rocket 4.4 00:15:21 11° W 00:18:57 19° NW 00:22:56 10° N
Cosmos 2333 Rocket 2.8 00:19:42 44° W 00:20:33 47° WNW 00:26:02 10° NNE
Cosmos 2322 3.8 00:20:48 63° W 00:21:11 65° WNW 00:26:54 10° NNE
ATLAS 5 CENTAUR R/B 3.7 00:10:32 10° NW 00:22:49 50° NE 00:24:40 33° E
CZ-4C R/B 3.2 00:16:33 10° NNW 00:23:56 69° NE 00:27:53 35° SE
Cosmos 1818 4.2 00:19:54 10° NW 00:24:10 46° W 00:24:10 46° W
Cosmos 1844 Rocket 3.9 00:22:37 10° NW 00:26:32 28° W 00:26:32 28° W
USA 215 4.3 00:23:15 10° NE 00:29:18 42° NNW 00:35:21 10° W
NOSS 0 Rocket 4.1 00:29:23 57° ESE 00:29:27 57° ESE 00:35:34 10° NNE
PSLV R/B 4.2 00:31:28 10° N 00:35:00 56° N 00:35:00 56° N
ALOS 2 4.4 00:38:34 22° WNW 00:38:34 22° WNW 00:40:55 10° NW
Cosmos 2151 Rocket 4.3 00:37:31 10° N 00:40:53 51° NNW 00:40:53 51° NNW
ADEOS Rocket 3.2 00:42:18 49° W 00:42:18 49° W 00:47:46 10° NNW
Cosmos 1745 Rocket 4.0 00:37:33 10° N 00:43:47 71° E 00:44:35 63° SE
Cosmos 2219 Rocket 3.0 00:42:57 38° W 00:43:51 40° WNW 00:49:07 10° N
Okean 2 Rocket 3.9 00:41:47 10° NNW 00:45:13 48° NW 00:45:13 48° NW
Meteor 1-16 Rocket 4.2 00:45:36 10° N 00:51:34 82° E 00:52:02 75° SE
Lacrosse 5 3.3 00:58:31 26° E 00:58:31 26° E 01:01:36 10° ENE
GP-B 4.1 00:54:18 10° NNE 00:58:07 38° ENE 00:58:07 38° ENE
SL-14 R/B 4.4 01:02:27 41° NNE 01:02:27 41° NNE 01:05:04 10° N
CZ-2D R/B 3.6 00:57:24 10° NE 01:01:43 24° E 01:02:28 24° ESE
Cosmos 1300 4.2 00:58:48 10° N 01:01:27 35° NE 01:01:27 35° NE
USA 267 3.1 01:02:15 62° S 01:03:07 69° SW 01:09:40 10° NW
Cosmos 883 Rocket 4.5 01:04:14 63° SSE 01:05:11 74° E 01:11:31 10° N
ASTEX 1 4.2 01:00:46 10° N 01:05:06 41° WNW 01:05:06 41° WNW
Cosmos 371 Rocket 3.4 01:06:03 74° NNW 01:06:03 74° NNW 01:10:32 10° NNE
Cosmos 2150 Rocket 3.9 01:06:08 78° WNW 01:06:08 78° WNW 01:11:14 10° NNE
USA 305 3.7 01:07:08 48° NNE 01:07:08 48° NNE 01:10:19 10° NE
USA 229 DEB 3.9 01:03:50 10° NW 01:11:20 85° ENE 01:15:06 35° SE
USA 229 3.9 01:03:56 10° NW 01:11:25 85° NE 01:15:14 34° SE
Cosmos 2237 Rocket 2.0 01:11:28 80° SSW 01:11:49 88° ESE 01:17:33 10° NNE
COSMOS 2428 3.8 01:12:17 31° W 01:13:35 34° WNW 01:18:45 10° N
Cosmos 1048 Rocket 4.3 01:09:56 10° NNW 01:14:18 52° WNW 01:14:18 52° WNW
Cosmos 405 Rocket 4.4 01:18:03 27° NW 01:18:03 27° NW 01:20:17 10° N
Cosmos 304 Rocket 3.8 01:17:17 76° ENE 01:17:17 76° ENE 01:21:50 10° NNE
Cosmos 494 Rocket 4.2 01:12:35 10° NNW 01:17:00 55° WNW 01:17:00 55° WNW
SL-16 R/B 3.9 01:14:42 14° ESE 01:19:12 34° ENE 01:24:42 10° N
Lacrosse 5 rocket 3.5 01:21:54 17° E 01:21:54 17° E 01:23:18 10° ENE
Cosmos 1125 Rocket 3.7 01:20:00 55° WNW 01:20:13 55° WNW 01:25:20 10° N
Cosmos 1437 Rocket 4.3 01:17:12 10° NNW 01:19:16 29° NNW 01:19:16 29° NNW
NOSS 2-2 (E) 4.4 01:15:50 10° NW 01:21:24 78° WSW 01:23:11 53° SSE
SME Rocket 3.6 01:24:34 50° E 01:24:50 51° ENE 01:29:26 10° N
Okean 1 Rocket 3.8 01:20:37 10° NNW 01:24:05 46° NW 01:24:05 46° NW
Cosmos 1953 3.6 01:23:52 10° NNW 01:26:26 34° NW 01:26:26 34° NW
Resurs 1-4 Rocket 2.6 01:26:01 10° NNE 01:31:05 46° E 01:31:56 43° SE
Cosmos 1943 Rocket 3.6 01:28:51 10° N 01:34:03 35° ENE 01:39:11 10° SE
MOZ.5/SAFIR/RUBIN 5/SL-8 3.7 01:33:59 85° ESE 01:34:05 87° ENE 01:38:51 10° NNW
Cosmos 2315 Rocket 4.0 01:35:34 57° SW 01:36:52 75° W 01:43:16 10° N
NOSS 3-1 (A) 4.2 01:30:21 10° NW 01:37:59 58° WSW 01:40:38 43° S
Cosmos 1709 Rocket 3.9 01:32:09 10° NNW 01:38:15 71° W 01:39:18 59° SSW
Cosmos 2278 Rocket 2.3 01:39:51 10° NNW 01:45:22 53° WSW 01:45:23 53° WSW
EO 1 Delta rocket 4.1 01:41:00 10° N 01:45:37 58° WNW 01:46:02 56° W
ADEOS II 3.3 01:42:13 10° NNE 01:46:57 33° E 01:48:40 27° SE
IDEFIX/ARIANE 42P 4.1 01:43:18 10° NE 01:47:49 28° E 01:49:51 22° SE
USA 306 4.1 01:47:34 32° NW 01:48:20 35° NNW 01:52:10 10° NE
Cosmos 2084 Rocket 3.6 01:49:15 60° NNE 01:49:15 60° NNE 01:52:26 10° NNE
USA 307 4.0 01:51:04 34° NW 01:51:47 37° NNW 01:55:42 10° NE
ERBS 4.2 01:54:54 24° NNW 01:54:54 24° NNW 01:56:53 10° NNE
Thor Agena Rocket 3.8 01:50:08 10° N 01:55:17 55° WNW 01:56:09 49° WSW
Cosmos 2369 Rocket 4.5 01:54:42 10° N 01:59:03 23° NE 02:03:24 10° ESE
NPP 3.7 01:53:46 10° NNE 01:59:10 69° ESE 02:00:35 48° SSE
SL-16 R/B 2.2 01:58:00 52° S 01:59:20 72° ESE 02:05:00 10° NNE
Cosmos 1455 Rocket 3.1 01:58:52 10° NNW 02:03:14 64° W 02:03:14 64° W
CZ-4 R/B 3.6 01:59:25 10° NNE 02:04:05 86° W 02:04:41 68° SSW
COSMOS 2455 3.4 02:04:48 35° SSE 02:06:47 48° ESE 02:12:34 10° NE
Cosmos 332 Rocket 4.5 02:07:03 37° W 02:07:40 39° WNW 02:12:10 10° N
Cosmos 1536 Rocket 4.3 02:08:03 38° SE 02:09:09 47° E 02:13:23 10° NNE
CZ-4C R/B 3.8 02:05:44 10° NW 02:12:20 31° WSW 02:12:59 31° WSW
Cosmos 1975 Rocket 3.9 02:16:47 36° W 02:16:56 36° WNW 02:21:04 10° N
Nadezhda 1 Rocket 4.3 02:15:05 29° SSE 02:18:27 64° E 02:24:41 10° NNE
Meteor 1-24 Rocket 3.7 02:17:04 46° SW 02:18:36 65° W 02:24:04 10° N
UNK 3.7 02:19:09 42° SSE 02:20:42 83° ENE 02:25:19 10° NNW
Meteor 2-10 Rocket 4.3 02:16:40 10° NNW 02:21:45 36° W 02:22:24 35° WSW
Cosmos 1025 Rocket 3.8 02:23:55 36° W 02:24:08 37° WNW 02:28:09 10° N
MOS 1 Rocket 3.1 02:23:22 42° SSE 02:24:46 79° ENE 02:29:05 10° N
MSX 4.5 02:19:28 10° NNE 02:25:04 49° E 02:28:24 23° SSE
YAOGAN 11 4.1 02:23:44 42° SSE 02:25:12 86° ENE 02:29:43 10° NNW
Cosmos 1455 1.9 02:23:19 10° N 02:27:03 89° E 02:27:22 73° S
Cosmos 1271 Rocket 3.5 02:27:06 10° N 02:30:49 48° ENE 02:32:45 25° SE
Cosmos 1269 Rocket 4.1 02:28:48 10° NNW 02:33:57 54° WSW 02:35:29 40° SSW
Lacrosse 5 2.5 02:37:42 29° W 02:40:00 49° NW 02:44:57 10° NE
CZ-2D R/B 2.8 02:36:52 10° N 02:41:54 42° WNW 02:43:47 30° WSW
Helios 1B rocket 4.4 02:42:39 10° NE 02:45:59 24° E 02:49:10 11° SSE
BREEZE-M DEB (TANK) 3.4 02:47:13 32° SSW 02:49:13 52° SSE 02:52:01 10° ENE
Cosmos 1544 Rocket 4.1 02:45:29 10° NNW 02:49:34 38° W 02:50:15 35° WSW
Cosmos 2154 Rocket 4.0 02:45:06 10° N 02:51:27 75° W 02:56:00 20° S
Cosmos 1943 3.8 02:50:42 21° S 02:54:23 52° ESE 02:59:54 10° NNE
Helios 1A 2.9 02:53:26 30° S 02:55:25 71° WSW 02:59:40 10° NNW
Cosmos 2237 Rocket 4.3 02:53:19 10° W 02:56:40 16° NW 03:00:04 10° NNW
AQUA 4.5 02:54:24 10° N 02:58:50 40° WNW 03:00:42 28° WSW
Lacrosse 5 rocket 2.1 02:57:25 27° W 02:59:00 40° NW 03:02:51 10° NNE
SL-16 R/B 3.0 02:59:47 26° SSW 03:02:39 40° W 03:08:28 10° NNW
Lacrosse 4 Rocket 4.2 03:05:28 10° SE 03:06:55 11° ESE 03:08:21 10° E
Cosmos 1892 Rocket 4.5 03:04:42 12° SSE 03:08:36 47° E 03:12:54 10° NNE
Resurs 1-4 Rocket 3.6 03:06:33 10° NNW 03:10:35 23° WNW 03:13:01 17° W
Cosmos 1703 3.6 03:11:07 31° SW 03:12:38 48° W 03:16:27 10° N
Cosmos 1726 Rocket 4.1 03:10:16 10° N 03:14:38 58° E 03:18:56 10° SSE
NOSS 3-3 (A) 3.8 03:13:34 22° SSW 03:17:15 85° SE 03:23:35 10° NE
NOSS 3-3 (C) 3.8 03:13:40 22° SSW 03:17:21 84° ESE 03:23:41 10° NE
Cosmos 1943 Rocket 2.9 03:12:40 10° NW 03:17:43 33° WSW 03:20:53 19° SSW
Cosmos 2297 4.1 03:12:47 10° NW 03:18:12 43° WSW 03:23:20 11° S
GPS 2-04 Rocket1 3.9 03:24:12 19° S 03:25:01 20° SSE 03:27:42 10° ESE
ADEOS II 3.1 03:21:59 10° N 03:26:32 30° WNW 03:29:36 17° WSW
IDEFIX/ARIANE 42P 3.4 03:22:37 10° N 03:27:23 36° WNW 03:30:39 18° SW
ARIANE 5 R/B 3.8 03:24:46 10° NNE 03:29:28 38° E 03:34:05 10° SSE
CBERS-1 4.0 03:27:19 10° NNE 03:32:27 84° WNW 03:37:09 12° SSW
DNEPR-1 R/B 3.5 03:32:35 19° SW 03:35:31 82° WNW 03:40:05 10° NNE
MOS 1-B Rocket 3.8 03:30:50 10° SSE 03:36:28 89° WSW 03:42:12 10° NNW
Cosmos 2218 Rocket 4.2 03:30:17 10° N 03:36:33 80° E 03:42:52 10° S
Cosmos 2056 Rocket 3.8 03:33:21 10° S 03:38:27 64° ESE 03:43:39 10° NNE
Cosmos 1892 3.5 03:36:07 10° S 03:39:47 51° E 03:43:28 10° NNE
Cosmos 2228 3.8 03:37:17 10° NNW 03:41:12 33° W 03:44:18 14° SSW
Cosmos 2369 Rocket 2.3 03:37:58 10° NNW 03:43:26 55° WSW 03:48:51 10° S
SL-16 R/B 4.0 03:40:08 10° W 03:44:02 19° NW 03:47:58 10° N
IRS-1D 4.2 03:39:07 10° N 03:44:06 42° WNW 03:48:23 14° SW
OAO 2 Rocket 4.1 03:41:18 16° SW 03:44:35 33° SSE 03:48:59 10° ESE
Cosmos 2251 Rocket 3.8 03:42:29 10° NNW 03:47:29 45° WSW 03:52:29 10° S
Cosmos 2181 Rocket 4.0 03:43:18 10° SSW 03:49:32 72° W 03:55:43 10° N
Cosmos 2058 Rocket 3.1 03:45:17 10° N 03:49:41 81° E 03:54:02 10° S
[s.n.52708] 2.7 03:48:11 18° SW 03:50:08 67° SE 03:52:56 10° NE
[s.n.52707] 2.7 03:48:17 18° SW 03:50:14 67° SE 03:53:03 10° NE
[s.n.52703] 2.7 03:48:24 18° SW 03:50:21 67° SE 03:53:10 10° NE
[s.n.52705] 2.7 03:48:30 18° SW 03:50:27 67° SE 03:53:17 10° NE
[s.n.52706] 2.7 03:48:36 18° SW 03:50:34 67° SE 03:53:23 10° NE
[s.n.52701] 2.7 03:48:43 17° SW 03:50:41 68° SE 03:53:30 10° NE
[s.n.52704] 2.7 03:48:49 17° SW 03:50:47 68° SE 03:53:37 10° NE
[s.n.52699] 2.7 03:48:56 17° SW 03:50:54 68° SE 03:53:43 10° NE
[s.n.52702] 2.7 03:49:02 17° SW 03:51:01 68° SE 03:53:50 10° NE
[s.n.52697] 2.7 03:49:09 17° SW 03:51:08 69° SE 03:53:57 10° NE
[s.n.52700] 2.7 03:49:15 17° SW 03:51:14 69° SE 03:54:04 10° NE
[s.n.52695] 2.7 03:49:22 17° SW 03:51:22 69° SE 03:54:10 10° NE
[s.n.52698] 2.7 03:49:28 17° SW 03:51:27 69° SE 03:54:17 10° NE
[s.n.52693] 2.7 03:49:35 17° SW 03:51:35 70° SE 03:54:24 10° NE
[s.n.52696] 2.7 03:49:41 17° SW 03:51:41 70° SE 03:54:31 10° NE
[s.n.52691] 2.7 03:49:47 17° SW 03:51:47 70° SE 03:54:38 10° NE
[s.n.52689] 2.7 03:49:54 17° SW 03:51:55 70° SE 03:54:44 10° NE
[s.n.52694] 2.7 03:50:01 17° SW 03:52:01 71° SE 03:54:51 10° NE
[s.n.52692] 2.7 03:50:07 17° SW 03:52:08 71° SE 03:54:58 10° NE
[s.n.52687] 2.7 03:50:13 17° SW 03:52:15 71° SE 03:55:04 10° NE
[s.n.52685] 2.7 03:50:20 17° SW 03:52:21 71° SE 03:55:11 10° NE
Cosmos 1656 Rocket 3.6 03:47:05 10° NNW 03:52:23 58° WSW 03:57:42 10° S
[s.n.52690] 2.7 03:50:26 17° SW 03:52:29 71° SE 03:55:18 10° NE
Cosmos 1959 Rocket 4.5 03:46:15 10° N 03:52:31 81° W 03:58:40 10° S
[s.n.52688] 2.7 03:50:33 17° SW 03:52:35 72° SE 03:55:25 10° NE
[s.n.52683] 2.7 03:50:39 17° SW 03:52:42 72° SE 03:55:31 10° NE
[s.n.52686] 2.6 03:50:46 17° SW 03:52:49 72° SE 03:55:39 10° NE
Cosmos 1408 2.5 03:49:10 10° S 03:52:49 89° W 03:56:28 10° N
COSMOS 2455 4.0 03:47:57 11° WSW 03:52:55 30° NW 03:58:12 10° NNE
[s.n.52681] 2.6 03:50:52 17° SW 03:52:56 72° SE 03:55:46 10° NE
[s.n.52679] 2.6 03:50:59 17° SW 03:53:02 73° SE 03:55:53 10° NE
[s.n.52684] 2.6 03:51:06 17° SW 03:53:10 73° SE 03:56:00 10° NE
[s.n.52682] 2.6 03:51:12 17° SW 03:53:17 73° SE 03:56:06 10° NE
[s.n.52677] 2.6 03:51:19 16° SW 03:53:23 73° SE 03:56:13 10° NE
[s.n.52680] 2.6 03:51:26 16° SW 03:53:31 74° SE 03:56:20 10° NE
[s.n.52675] 2.6 03:51:32 16° SW 03:53:37 74° SE 03:56:27 10° NE
[s.n.52678] 2.6 03:51:39 16° SW 03:53:44 74° SE 03:56:34 10° NE
IRS-P3 4.4 03:48:27 10° NNE 03:53:48 73° ESE 03:59:07 10° S
[s.n.52673] 2.6 03:51:46 16° SW 03:53:52 74° SE 03:56:42 10° NE
[s.n.52676] 2.6 03:51:52 16° SW 03:53:58 75° SE 03:56:48 10° NE
[s.n.52671] 2.6 03:51:59 16° SW 03:54:05 75° SE 03:56:55 10° NE
[s.n.52669] 2.6 03:52:06 16° SW 03:54:12 75° SE 03:57:02 10° NE
[s.n.52674] 2.6 03:52:13 16° SW 03:54:19 75° SE 03:57:10 10° NE
[s.n.52672] 2.6 03:52:19 16° SW 03:54:25 76° SE 03:57:16 10° NE
[s.n.52667] 2.6 03:52:26 16° SW 03:54:33 76° SE 03:57:24 10° NE
[s.n.52665] 2.6 03:52:33 16° SW 03:54:41 76° SE 03:57:31 10° NE
[s.n.52670] 2.6 03:52:40 16° SW 03:54:47 77° SE 03:57:38 10° NE
[s.n.52668] 2.6 03:52:46 16° SW 03:54:54 77° SE 03:57:45 10° NE
Cosmos 1190 Rocket 4.2 03:49:36 10° NNW 03:54:56 78° ENE 04:00:14 10° SSE
[s.n.52666] 2.6 03:52:53 16° SW 03:55:01 77° SE 03:57:52 10° NE
[s.n.52663] 2.6 03:53:00 16° SW 03:55:09 77° SE 03:57:59 10° NE
[s.n.52662] 2.6 03:53:06 16° SW 03:55:15 78° SE 03:58:06 10° NE
[s.n.52664] 2.6 03:53:13 16° SW 03:55:23 78° SE 03:58:13 10° NE
[s.n.52661] 2.6 03:53:20 16° SW 03:55:30 78° SE 03:58:21 10° NE
[s.n.52660] 2.6 03:53:27 16° SW 03:55:37 78° SE 03:58:28 10° NE
[s.n.52656] 2.6 03:53:34 16° SW 03:55:44 79° SE 03:58:34 10° NE
[s.n.52658] 2.6 03:53:41 16° SW 03:55:52 79° SE 03:58:42 10° NE
[s.n.52659] 2.6 03:53:47 16° SW 03:55:58 79° SE 03:58:49 10° NE
[s.n.52657] 2.6 03:53:55 16° SW 03:56:05 79° SE 03:58:57 10° NE
Cosmos 864 Rocket 4.5 03:55:57 10° NNW 04:02:04 67° W 04:08:07 10° S
Cosmos 1603 4.2 04:01:41 10° SW 04:06:59 46° WNW 04:12:25 10° NNE
PAYLOAD A 3.9 04:04:27 10° N 04:09:10 73° WNW 04:13:59 10° SSW
ALOS 2.5 04:12:07 10° N 04:16:42 56° WNW 04:21:15 10° SSW
CZ-2C R/B 2.7 04:14:43 10° N 04:19:45 58° WNW 04:24:36 10° SSW
Cosmos 1869 3.6 04:17:01 10° N 04:20:57 73° E 04:24:48 10° SSE
